Regional Weather Roundup
Issued by NWS

Home | Current Version | Previous Version | Text Only | Print | Product List | Glossary On
Versions: 1 2 3 4 5 6 7 8 9 10 11 12 13 14 15 16 17 18 19 20 21 22 23 24 25 26
000
ASUS45 KPSR 281310
RWRAZ

ARIZONA HOURLY REGIONAL WEATHER ROUNDUP
NATIONAL WEATHER SERVICE PHOENIX AZ
600 AM MST FRI JUL 28 2017

NOTE: FAIR INDICATES FEW OR NO CLOUDS BELOW 12,000 FEET WITH NO
SIGNIFICANT WEATHER AND/OR OBSTRUCTIONS TO VISIBILITY.

AZZ001>003-036-281400-
NORTHWEST ARIZONA

CITY           SKY/WX    TMP DP  RH WIND       PRES   REMARKS
KINGMAN        MOCLDY    77  55  46 E13       30.02R
$$

AZZ004>008-015-016-018-281400-
NORTH CENTRAL ARIZONA

CITY           SKY/WX    TMP DP  RH WIND       PRES   REMARKS
GRAND CANYON   CLOUDY    61  59  93 CALM      30.30R
WILLIAMS       CLOUDY    64  52  63 SE9G15    30.31R
PRESCOTT       PTCLDY    67  60  78 SE6       30.19R
FLAGSTAFF      LGT RAIN  56  55  97 SW5       30.36R
PAYSON         CLOUDY    66  63  88 CALM      30.24S
PAGE           LGT RAIN  76  60  57 SW9       30.09S
$$

AZZ009>014-017-281400-
NORTHEAST ARIZONA

CITY           SKY/WX    TMP DP  RH WIND       PRES   REMARKS
WINSLOW        CLOUDY    69  64  84 E6        30.20R
SAINT JOHNS    CLOUDY    66  62  87 CALM      30.22S
WINDOW ROCK    CLOUDY    63  59  87 CALM      30.31R
$$

AZZ540-542>544-546-548-281400-
GREATER PHOENIX AREA

CITY           SKY/WX    TMP DP  RH WIND       PRES   REMARKS
PHOENIX        CLOUDY    85  65  51 SE10      29.92R
BUCKEYE        MOCLDY    86  63  45 SE6       29.92R
GLENDALE       MOCLDY    88  66  48 E7        29.93
LUKE AFB       MOCLDY    87  66  48 E7        29.91R
DEER VALLEY    MOCLDY    84  66  54 SE7       29.94R
SCOTTSDALE     MOCLDY    84  66  54 S6        29.97R
MESA-GATEWAY   MOCLDY    81  70  69 S7        29.97R
CHANDLER       MOCLDY    82  68  61 SE5       29.95
$$

AZZ539-553-281400-
SOUTHWEST MARICOPA COUNTY AND PINAL COUNTY

CITY           SKY/WX    TMP DP  RH WIND       PRES   REMARKS
CASA GRANDE    LGT RAIN  78  71  79 E5        29.97R
GILA BEND      FAIR      88  62  41 SE6       29.88R
$$

AZZ503-504-507>509-281400-
SOUTHEAST ARIZONA

CITY           SKY/WX    TMP DP  RH WIND       PRES   REMARKS
TUCSON         MOCLDY    75  67  76 SE5       30.04R
DAVIS-MONTHAN  CLOUDY    74  67  78 SE7       30.03R
RYAN FIELD     CLEAR     73  70  88 E7        30.03
NOGALES        MOCLDY    67  67 100 S3        30.11S
SIERRA VISTA   PTCLDY    65  63  93 S3        30.17F
DOUGLAS        CLEAR     64  62  93 NE5       30.14S
SAFFORD        PTCLDY    70  68  93 S3        30.06R
$$

AZZ532-281400-
SOUTHWEST ARIZONA

CITY           SKY/WX    TMP DP  RH WIND       PRES   REMARKS
YUMA           MOCLDY    87  74  64 S30G36    29.82R DUST
$$

CAZ041-043-047-048-061-525>527-560>570-281400-
SOUTHERN CALIFORNIA

CITY           SKY/WX    TMP DP  RH WIND       PRES   REMARKS
DOWNTOWN L.A.  PTCLDY    66  62  87 CALM      29.91R
L.A. AIRPORT   MOCLDY    66  63  90 CALM      29.92R
SAN DIEGO      CLOUDY    70  64  81 W5        29.92R
BURBANK        CLEAR     66  60  81 CALM      29.92S
ONTARIO        PTCLDY    66  62  87 CALM      29.92R
RIVERSIDE      CLEAR     66  63  90 CALM      29.92S
PALM SPRINGS   CLEAR     82  56  40 CALM      29.79R
EL CENTRO NAS  PTCLDY    86  70  58 SE18      29.80R
IMPERIAL       CLEAR     89  73  59 SE18G30   29.78R
BLYTHE         PTCLDY    91  62  37 S23G30    29.82R
NEEDLES        CLEAR     92  43  18 W7        29.81R
$$

NVZ020-UTZ003-281400-
SOUTHERN NEVADA-UTAH

CITY           SKY/WX    TMP DP  RH WIND       PRES   REMARKS
LAS VEGAS      PTCLDY    86  36  16 SW6       29.89R
SALT LAKE CITY MOCLDY    70  59  68 S3        30.10R
$$

NMZ009-TXZ055-281400-
NEW MEXICO-WEST TEXAS

CITY           SKY/WX    TMP DP  RH WIND       PRES   REMARKS
ALBUQUERQUE    CLOUDY    65  63  93 N5        30.24R
EL PASO        PTCLDY    71  66  84 N8        30.09R
$$


........................KEY........................
SKY/WX - SKY CONDITION/WEATHER
TMP    - TEMPERATURE IN FAHRENHEIT
DP     - DEW POINT IN FAHRENHEIT
RH     - RELATIVE HUMIDITY IN PERCENT
WIND   - DIRECTION AND SPEED IN MILES PER HOUR (MPH)
VRB    - VARIABLE WIND DIRECTION
PRES   - MEAN SEA LEVEL PRESSURE IN INCHES OF MERCURY
         F - FALLING PRESSURE   R - RISING PRESSURE
         S - STEADY PRESSURE
VSB    - VISIBILITY IN MILES
HX     - HEAT INDEX IN FAHRENHEIT
WCI    - WIND CHILL INDEX IN FAHRENHEIT
TC     - TEMPERATURE IN CELSIUS WHICH IS ALSO KNOWN AS
         TEMPERATURE IN CENTIGRADE
AFB    - AIR FORCE BASE
         LUKE AFB IS LUKE AIR FORCE BASE
         DAVIS-MONTHAN IS DAVIS-MONTHAN AIR FORCE BASE
NAS    - NAVAL AIR STATION
         EL CENTRO NAS IS EL CENTRO NAVAL AIR STATION
N/A    - NOT AVAILABLE





USA.gov is the U.S. government's official web portal to all federal, state and local government web resources and services.